sat.trackr.live / text

‹ back to catalog

STARLINK-30245

NORAD 57612 · 2023-119L

PAYLOAD ACTIVE UNKNOWN

§ Identity

Operator
Country
US
Launch date
2023-08-11
Launch site
AFETR
Launch vehicle
Mass (kg)
RCS (m²)

Purposes: comms

External: N2YO · Heavens-Above · Gunter

§ Orbital elements

Epoch: 2026-05-25T00:22:26.672736Z

Period
94.27 min
Inclination
43.0037°
Eccentricity
0.0001087
Mean motion
15.27577727 rev/d
Perigee alt
482.3 km
Apogee alt
483.8 km
Semi-major
6,861.2 km
B*
1.1279e-5
RAAN
10.1679°
Arg perigee
265.7132°
Mean anomaly
94.3595°
Rev number
15,476

§ Raw data

STARLINK-302451 57612U 23119L   26145.01558649  .00000048  00000+0  11279-4 0  99982 57612  43.0037  10.1679 0001087 265.7132  94.3595 15.27577727154764

JSON: /api/v1/satellites/57612 · /tle

For live sub-satellite position, see the globe view (requires WebGL).

§ Visibility from observer

Set your observer location to see the next 7 days of passes ≥ 10°. The values pass through the URL so the page stays shareable.

No JS? Fill the form by hand. The geolocation button needs JavaScript.